FW0984 Weather Reports


Display with metric or nautical units.
time (UTC)temp
F
wind
direction
speed
MPH
gust
MPH
rain 1hr
in
rain 24hr
in
rain mn
in
humidity
%
barometer
mb
20260509211510 73 262 0.0 4.0 0.00 0.16 0.16 52 1008.4
20260509210012 73 263 0.0 2.0 0.00 0.16 0.16 52 1008.4
20260509204518 73 267 0.0 6.0 0.00 0.16 0.16 52 1008.4
20260509203009 73 269 1.0 3.0 0.00 0.16 0.16 52 1008.6
20260509201503 73 263 0.0 3.0 0.00 0.16 0.16 55 1008.7
20260509200001 72 247 0.0 3.0 0.00 0.16 0.16 57 1008.9
20260509194558 71 244 0.0 2.0 0.00 0.16 0.16 54 1009.0
20260509193057 70 252 1.0 2.0 0.00 0.16 0.16 58 1009.2
20260509191600 69 262 1.0 3.0 0.00 0.16 0.16 58 1009.4
20260509190056 69 260 0.0 6.0 0.00 0.16 0.16 60 1009.5
20260509184548 69 245 1.0 3.0 0.00 0.16 0.16 62 1009.5
20260509183047 69 259 1.0 4.0 0.00 0.16 0.16 62 1009.5
20260509181545 68 252 1.0 3.0 0.00 0.16 0.16 60 1009.7
20260509180043 68 265 1.0 3.0 0.00 0.16 0.16 61 1009.6
20260509174552 67 252 0.0 1.0 0.00 0.16 0.16 66 1009.7
20260509173045 66 71 0.0 2.0 0.00 0.16 0.16 70 1009.8
20260509171544 65 245 1.0 2.0 0.00 0.16 0.16 72 1009.8
20260509170041 66 257 1.0 3.0 0.00 0.16 0.16 68 1010.0
20260509164536 64 248 1.0 2.0 0.00 0.16 0.16 73 1010.1
20260509163032 63 241 2.0 5.0 0.00 0.16 0.16 73 1010.2
20260509161532 65 268 0.0 3.0 0.00 0.16 0.16 75 1010.0
20260509160030 64 257 0.0 2.0 0.00 0.16 0.16 74 1010.0
20260509154527 64 257 0.0 3.0 0.00 0.16 0.16 79 1009.8
20260509153029 63 231 0.0 2.0 0.00 0.16 0.16 80 1009.8
20260509151520 62 260 0.0 2.0 0.00 0.16 0.16 83 1009.6
20260509150019 61 259 0.0 0.0 0.00 0.16 0.16 88 1009.5
20260509144515 60 250 0.0 0.0 0.00 0.16 0.16 92 1009.4
20260509143017 60 249 0.0 3.0 0.00 0.16 0.16 94 1009.5
20260509141507 60 169 0.0 1.0 0.00 0.16 0.16 96 1009.5
20260509140002 57 149 0.0 0.0 0.00 0.16 0.16 96 1009.6
20260509134600 55 103 0.0 0.0 0.00 0.16 0.16 96 1009.6
20260509133104 55 103 0.0 2.0 0.00 0.16 0.16 96 1009.6
20260509131602 54 168 0.0 2.0 0.00 0.16 0.16 95 1009.4
20260509130104 54 197 0.0 2.0 0.00 0.16 0.16 95 1009.4
20260509124558 54 187 0.0 0.0 0.00 0.16 0.16 95 1009.3
20260509123051 54 202 0.0 0.0 0.00 0.16 0.16 95 1009.6
20260509121600 53 196 0.0 0.0 0.00 0.16 0.16 95 1009.6
20260509120049 53 196 0.0 0.0 0.01 0.16 0.16 95 1009.4
20260509114547 53 192 0.0 0.0 0.01 0.16 0.16 95 1009.5
20260509113050 53 194 0.0 0.0 0.02 0.16 0.16 95 1009.5
20260509111544 53 124 0.0 0.0 0.04 0.16 0.16 95 1009.1
20260509110040 53 109 0.0 0.0 0.04 0.15 0.15 95 1009.5
20260509104539 53 109 0.0 0.0 0.05 0.15 0.15 94 1009.7
20260509103038 53 109 0.0 0.0 0.05 0.14 0.14 94 1009.9
20260509101538 53 109 0.0 0.0 0.04 0.12 0.12 94 1009.9
20260509100036 53 109 0.0 0.0 0.04 0.11 0.11 94 1009.9
20260509094535 53 109 0.0 0.0 0.04 0.10 0.10 94 1009.8
20260509093034 53 97 0.0 1.0 0.04 0.09 0.09 94 1009.8
20260509091533 53 128 0.0 0.0 0.04 0.08 0.08 94 1010.3
20260509090032 53 128 0.0 0.0 0.03 0.07 0.07 94 1010.6
20260509084536 53 128 0.0 0.0 0.03 0.06 0.06 93 1010.6
20260509083043 53 128 0.0 0.0 0.02 0.05 0.05 93 1010.8
20260509081529 53 128 0.0 0.0 0.02 0.04 0.04 93 1010.6
20260509080030 53 42 0.0 0.0 0.02 0.04 0.04 93 1010.7
20260509074527 53 42 0.0 0.0 0.01 0.03 0.03 93 1010.3
20260509073024 53 42 0.0 0.0 0.02 0.03 0.03 92 1010.8
20260509071523 54 42 0.0 0.0 0.01 0.02 0.02 91 1011.0
20260509070022 54 42 0.0 0.0 0.01 0.02 0.02 91 1011.2
20260509064521 54 42 0.0 0.0 0.01 0.02 0.02 90 1011.3
20260509063021 54 42 0.0 0.0 0.01 0.01 0.01 90 1011.3
20260509061522 54 42 0.0 0.0 0.01 0.01 0.01 89 1011.1
20260509060019 54 42 0.0 0.0 0.01 0.01 0.01 89 1011.0
20260509054516 54 42 0.0 0.0 0.01 0.01 0.01 89 1011.1
20260509053014 55 42 0.0 0.0 0.00 0.00 0.00 87 1011.3
20260509051513 55 42 0.0 0.0 0.00 0.00 0.00 86 1011.5
20260509050011 55 42 0.0 0.0 0.00 0.00 0.00 84 1011.5
20260509044508 56 42 0.0 0.0 0.00 0.00 0.00 83 1011.6
20260509043006 56 42 0.0 0.0 0.00 0.00 0.00 83 1011.5
20260509041503 57 42 0.0 0.0 0.00 0.00 0.00 81 1011.7
20260509040000 57 42 0.0 0.0 0.00 0.00 0.00 79 1011.8
20260509034607 57 60 0.0 1.0 0.00 0.00 0.00 78 1011.9
20260509033101 57 47 0.0 1.0 0.00 0.00 0.00 77 1011.9
20260509031607 58 275 0.0 3.0 0.00 0.00 0.00 76 1011.9
20260509030059 58 61 0.0 3.0 0.00 0.00 0.00 75 1011.9
20260509024600 59 145 0.0 1.0 0.00 0.00 0.00 76 1011.8
20260509023058 59 76 0.0 2.0 0.00 0.00 0.00 71 1011.5
20260509021557 59 67 0.0 0.0 0.00 0.00 0.00 69 1011.5
20260509020057 60 355 0.0 0.0 0.00 0.00 0.00 69 1011.6
20260509014601 60 259 0.0 0.0 0.00 0.00 0.00 65 1011.6
20260509013100 60 259 0.0 2.0 0.00 0.00 0.00 64 1011.5
20260509011555 60 76 0.0 0.0 0.00 0.00 0.00 73 1011.5
20260509010057 60 76 0.0 0.0 0.00 0.00 0.00 64 1011.2
20260509004558 61 76 0.0 0.0 0.00 0.00 0.00 62 1010.9
20260509003054 61 76 0.0 0.0 0.00 0.00 0.00 63 1010.9
20260509001653 62 78 0.0 0.0 0.00 0.00 0.00 62 1011.0
20260509000052 63 78 0.0 0.0 0.00 0.00 0.00 63 1011.0
20260508234552 64 255 0.0 0.0 0.00 0.00 0.00 60 1011.1
20260508233059 65 255 0.0 2.0 0.00 0.00 0.00 54 1011.2
20260508231550 65 248 0.0 2.0 0.00 0.00 0.00 50 1011.0
20260508230058 66 257 0.0 2.0 0.00 0.00 0.00 49 1010.9
20260508224549 66 259 0.0 0.0 0.00 0.00 0.00 47 1010.7
20260508223049 66 252 0.0 1.0 0.00 0.00 0.00 45 1010.7
20260508221550 67 252 0.0 2.0 0.00 0.00 0.00 45 1010.7
20260508220047 67 259 0.0 2.0 0.00 0.00 0.00 45 1010.8
20260508214547 67 254 1.0 4.0 0.00 0.00 0.00 45 1010.8
20260508213046 67 258 1.0 2.0 0.00 0.00 0.00 45 1010.9